Location: Pl�tzky
(52.0521°N, 11.8020°E)
Time: 12:46:06
(UTC+00:00)

SKYMED 2 - Pass Details

Date: 22 November 2019
Orbit: 621 x 623 km, 97.9° (Epoch: 13 December)

Event Time Altitude Azimuth Distance (km) Brightness Sun altitude
Exits shadow 17:40:41 29° 12° (NNE) 1,140 4.7 -22.1°
Maximum altitude 17:42:51 84° 288° (WNW) 633 3.5 -22.5°
Drops below altitude 10° 17:47:12 10° 198° (SSW) 1,989 6.4 -23.1°
Sets 17:49:22 0° 198° (SSW) 2,890 7.3 -23.5°
